Tracking 35331 objects as of 16-Sep-2026
HD Live streaming from Space Station
objects crossing your sky now

COSMOS 1408 DEB


COSMOS 1408 DEB is no longer on orbit


NORAD ID: 52072
Int'l Code: 1982-092BVA
Launch date: September 16, 1982
Source: Commonwealth of Independent States (former USSR) (CIS)
Launch site: PLESETSK MISSILE AND SPACE COMPLEX (PKMTR)
Decay date: 2022-12-15

Note: This is SATELLITE DEBRIS
Your satellite tracking list
Your tracking list is empty




NASA's NSSDC Master Catalog

Two Line Element Set (TLE):
1 52072U 82092BVA 22260.52828457  .00113404  00000-0  31957-2 0  9990
2 52072  82.5393 182.1373 0069437  68.4473 292.4151 15.33564771 33781
Source of the keplerian elements: AFSPC